This is the latest recevied weather packets stored in our database for station/object SP4FDH-13. If no packets are shown the sender has not sent any weather packets the latest 10 day(s).
| Time | Temp. | Humidity | Pressure | Rain* | Wind** | Luminosity | Snow |
|---|---|---|---|---|---|---|---|
| 1777151658 | 10.56° C | 93% | 1000.7 hPa | - | - | - | - |
| 1777151082 | 11.11° C | 84% | 1000.7 hPa | - | - | - | - |
| 1777150506 | 11.11° C | 83% | 1000.9 hPa | - | - | - | - |
| 1777149930 | 11.11° C | 77% | 1000.8 hPa | - | - | - | - |
| 1777149355 | 11.11° C | 76% | 1000.9 hPa | - | - | - | - |
| 1777148779 | 11.11° C | 73% | 1001 hPa | - | - | - | - |
| 1777148204 | 11.11° C | 72% | 1001.2 hPa | - | - | - | - |
| 1777147628 | 11.11° C | 70% | 1001.2 hPa | - | - | - | - |
| 1777147052 | 11.67° C | 68% | 1001.1 hPa | - | - | - | - |
| 1777146476 | 11.67° C | 67% | 1001.2 hPa | - | - | - | - |
| 1777145901 | 11.67° C | 65% | 1001.7 hPa | - | - | - | - |
| 1777145326 | 12.78° C | 60% | 1001.6 hPa | - | - | - | - |
| 1777144750 | 12.22° C | 62% | 1001.8 hPa | - | - | - | - |
| 1777144174 | 12.22° C | 61% | 1001.7 hPa | - | - | - | - |
| 1777143598 | 12.22° C | 60% | 1001.9 hPa | - | - | - | - |
| 1777143022 | 12.22° C | 59% | 1001.9 hPa | - | - | - | - |
| 1777142447 | 12.22° C | 57% | 1001.9 hPa | - | - | - | - |
| 1777141871 | 12.22° C | 56% | 1001.9 hPa | - | - | - | - |
| 1777141296 | 12.78° C | 55% | 1001.9 hPa | - | - | - | - |
| 1777140721 | 12.78° C | 57% | 1001.8 hPa | - | - | - | - |
| 1777140145 | 12.78° C | 58% | 1001.9 hPa | - | - | - | - |
| 1777139570 | 13.33° C | 58% | 1001.8 hPa | - | - | - | - |
| 1777138994 | 13.33° C | 57% | 1001.8 hPa | - | - | - | - |
| 1777138418 | 13.33° C | 57% | 1001.7 hPa | - | - | - | - |
| 1777137842 | 13.89° C | 56% | 1001.6 hPa | - | - | - | - |
* Rain since midnight (hover to see other rain measurements)
** Current wind speed in m/s (hover to see current wind gust speed)